Regional Weather Roundup
Issued by NWS Sterling, VA

Home | Current Version | Previous Version | Graphics & Text | Print | Product List | Glossary On
Versions: 1 2 3 4 5 6 7 8 9 10 11 12 13 14 15 16 17 18 19 20 21 22 23 24 25 26 27 28 29 30 31 32 33 34 35 36 37 38 39 40 41 42 43 44 45 46 47 48
000
ASUS41 KLWX 302110
RWRLWX

REGIONAL WEATHER ROUNDUP
NATIONAL WEATHER SERVICE BALTIMORE MD/WASHINGTON DC
500 PM EDT THU JUL 30 2015

Note: "FAIR" indicates few or no clouds below 12,000 feet
with no significant weather and/or obstructions to visibility.
 TC=TEMPERATURE CELSIUS

 * =Non NWS site. Station does not report precipitation (e.g. rain,
    snow, etc.), thunder, or fog.

DCZ001-MDZ009-015-VAZ040>042-051-053>054-302200-
WASHINGTON METRO

CITY           SKY/WX    TMP DP  RH WIND       PRES   REMARKS
WASHINGTON NAT PTSUNNY   83  76  79 S7        29.87S HX  91
DULLES         PTSUNNY   84  75  74 S5        29.86F HX  92
ANDREWS AFB    PTSUNNY   78  74  85 S5        29.87R
FT BELVOIR     CLOUDY    81  75  83 SE5       29.87S
QUANTICO       CLOUDY    81  74  77 S8        29.86R
COLLEGE PARK*  PTSUNNY   82  77  83 CALM      29.86S HX  91
LEESBURG*      PTSUNNY   90  77  66 CALM      29.87S HX 102
GAITHERSBURG*  PTSUNNY   84  75  74 W7        29.90S HX  92

$$

MDZ006>007-011-014-302200-
BALTIMORE METRO

CITY           SKY/WX    TMP DP  RH WIND       PRES   REMARKS
BWI AIRPORT    CLOUDY    82  75  79 CALM      29.85S
MD SCIENCE CTR   N/A     83  74  74 MISG      29.85F
MARTIN STATE   PTSUNNY   79  77  94 S3        29.86F
ANNAPOLIS      CLOUDY    78  72  81 S6        29.86S
FORT MEADE*    CLOUDY    79  75  89 S3        29.88S

$$

MDZ012-015-019>023-302200-
MARYLAND EASTERN SHORE

CITY           SKY/WX    TMP DP  RH WIND       PRES   REMARKS
OCEAN CITY     MOSUNNY   83  76  79 S10       29.88R HX  91
SALISBURY      PTSUNNY   87  75  67 S9        29.87R HX  96
BAY BRIDGE AP*   N/A     77  75  94 S5        29.87S
CAMBRIDGE*     CLOUDY    81  72  74 NW15      29.88R

$$

MDZ017>025-302200-
SOUTHERN MARYLAND

CITY           SKY/WX    TMP DP  RH WIND       PRES   REMARKS
PATUXENT RIVER CLOUDY    86  74  67 S5        29.86R HX  94
ST INIGOES     MOSUNNY   86  77  74 SE7       29.85S HX  97
LEONARDTOWN*   CLOUDY    79  72  78 W12       29.91R

$$

MDZ003>005-302200-
NORTH CENTRAL MARYLAND

CITY           SKY/WX    TMP DP  RH WIND       PRES   REMARKS
FREDERICK*     SUNNY     90  75  62 NW7       29.87F HX 100
HAGERSTOWN APT MOSUNNY   91  54  28 NW16      29.87R
WESTMINSTER*   PTSUNNY   84  77  79 W7        29.87S HX  94

$$

MDZ501>502-302200-
WESTERN MARYLAND

CITY           SKY/WX    TMP DP  RH WIND       PRES   REMARKS
OAKLAND*       PTSUNNY   75  64  69 W8G17     30.04S
CUMBERLAND*    PTSUNNY   90  55  31 NW10      29.93S

$$

VAZ025>031-302200-
SHENANDOAH VALLEY

CITY           SKY/WX    TMP DP  RH WIND       PRES   REMARKS
WINCHESTER*    PTSUNNY   91  63  38 NW10G18   29.88R HX  92
FRONT ROYAL*   FAIR      84  75  74 NE3       29.87S HX  92
LURAY*         FAIR      90  75  62 E5        29.88R HX 100
NEW MARKET*    FAIR      88  71  58 NW3       29.86S HX  94
STAUNTON*      TSTM      86  74  69 NE16G22   29.91S HX  94
WAYNESBORO*    FAIR      87  74  64 SW10      29.90F HX  95

$$

WVZ021-048>050-054>055-302200-
EASTERN WEST VIRGINIA PANHANDLE

CITY           SKY/WX    TMP DP  RH WIND       PRES   REMARKS
MARTINSBURG    PTSUNNY   89  66  46 NW14G20   29.87S HX  91
PETERSBURG*    MOSUNNY  N/A N/A N/A NW7       29.92S

$$

VAZ036>039-050-302200-
CENTRAL FOOTHILLS

CITY           SKY/WX    TMP DP  RH WIND       PRES   REMARKS
CHARLOTTESVILL PTSUNNY   89  74  60 S5        29.86F HX  98
CULPEPER*      MOSUNNY   83  74  76 CALM      29.87F
ORANGE*        PTSUNNY   84  75  74 E5        29.88F HX  92
GORDONSVILLE*  FAIR      84  79  84 CALM      29.85F HX  96
WARRENTON*     FAIR      85  80  83 CALM      29.86S HX  99

$$

VAZ055>057-302200-
NORTH AND CENTRAL PIEDMONT

CITY           SKY/WX    TMP DP  RH WIND       PRES   REMARKS
FREDERICKSBRG* CLOUDY    80  79  99 SE5       29.88S
STAFFORD*      PTSUNNY   79  74  83 S7        29.92S

$$

NCZ024-NYZ072-PAZ021-071-VAZ022-071-302200-
OTHER REGIONAL OBSERVATIONS

CITY           SKY/WX    TMP DP  RH WIND       PRES   REMARKS
NEW YORK CITY  HVY RAIN  76  73  91 CALM      29.83R VSB 3/4
PHILADELPHIA   TSTM      77  72  84 SW12      29.85R
PITTSBURGH     MOSUNNY   86  53  32 NW15      29.95S
ROANOKE        MOSUNNY   93  67  42 NW14      29.93F HX  96
RICHMOND       CLOUDY    91  74  57 SW10      29.86S HX 100
RALEIGH        PTSUNNY   89  74  60 CALM      29.89R HX  98

$$

ANZ530>537-302200-
MARINE OBSERVATIONS

STATION/POSITION TIME  TEMP    WIND        PRES
                       AIR SEA DIR/SP/G
                 (UTC) (F)     (DEG/KT/KT) (MB)
THOMAS PT LIGHT  NOT AVBL
BALT KEY BRIDGE  2000   78     240/  2/  3 1010.8F
COVE POINT       2000   82     180/ 15/ 19 1011.5F
LEWISETTA        2000   88 85  240/ 10/ 13 1010.6F
SOLOMONS ISLAND  2000      83                N/A
PINEY POINT      2000          230/  6/  8   N/A

$$




USA.gov is the U.S. government's official web portal to all federal, state and local government web resources and services.